Location: Unspecified
(7.6588°S, 0.0000°E)
Time: 06:30:40
(UTC+00:00)

Altair - All Passes

Search period start: 04 April 2026 00:00
Search period end: 14 April 2026 00:00
Orbit: 1502 x 1682 km, 47.2° (Epoch: 29 March)

Date Brightness Start Highest point End Pass type
(mag) Time Alt. Az. Time Alt. Az. Time Alt. Az.
4 Apr - 00:51:57 10° NNW 01:00:44 51° NE 01:09:42 10° SE night (unlit)
4 Apr - 02:57:15 10° WNW 03:05:20 34° SW 03:13:42 10° SSE visible
4 Apr - 11:32:20 10° SSW 11:41:57 46° SE 11:51:28 10° ENE daylight
4 Apr - 13:37:19 10° WSW 13:46:38 42° NW 13:55:51 10° NNE daylight
5 Apr - 00:26:57 10° NNW 00:35:32 45° NE 00:44:16 10° ESE night (unlit)
5 Apr - 02:31:44 10° WNW 02:40:04 38° SW 02:48:40 10° SSE visible
5 Apr - 11:07:16 10° SSW 11:16:39 41° SE 11:25:57 10° ENE daylight
5 Apr - 13:11:50 10° WSW 13:21:23 47° NW 13:30:50 10° NNE daylight
6 Apr - 00:01:59 10° NNW 00:10:21 40° NE 00:18:49 10° ESE night (unlit)
6 Apr - 02:06:16 10° WNW 02:14:48 43° SW 02:23:36 10° SSE visible
6 Apr - 10:42:12 10° SSW 10:51:19 37° SE 11:00:23 10° ENE daylight
6 Apr - 12:46:22 10° SW 12:56:08 53° NW 13:05:48 10° NNE daylight
6 Apr - 23:37:03 10° N 23:45:09 35° NE 23:53:18 10° ESE night (unlit)
7 Apr - 01:40:50 10° WNW 01:49:32 48° SW 01:58:30 10° SSE visible
7 Apr - 10:17:10 10° SSW 10:25:59 33° SE 10:34:46 10° ENE daylight
7 Apr - 12:20:58 10° SW 12:30:53 59° NW 12:40:43 10° NNE daylight
7 Apr - 23:12:11 10° N 23:19:57 31° NE 23:27:45 10° ESE night (unlit)
8 Apr - 01:15:27 10° WNW 01:24:18 54° SW 01:33:24 10° SSE night (unlit)
8 Apr - 09:52:10 10° SSW 10:00:38 30° SE 10:09:05 10° ENE daylight
8 Apr - 11:55:35 10° SW 12:05:37 66° NW 12:15:36 10° NNE daylight
8 Apr - 14:08:39 10° WNW 14:10:26 11° NW 14:12:14 10° NW daylight
8 Apr - 22:47:22 10° N 22:54:44 27° NE 23:02:08 10° ESE night (unlit)
9 Apr - 00:50:06 10° NW 00:59:04 60° SW 01:08:16 10° SSE night (unlit)
9 Apr - 03:02:19 10° SW 03:04:56 11° SW 03:07:35 10° SSW visible
9 Apr - 09:27:13 10° S 09:35:17 27° SE 09:43:21 10° E daylight
9 Apr - 11:30:15 10° SW 11:40:22 73° NW 11:50:26 10° NNE daylight
9 Apr - 13:41:09 10° WNW 13:45:07 13° NW 13:49:04 10° NNW daylight
9 Apr - 22:22:36 10° N 22:29:31 24° NE 22:36:26 10° E night (unlit)
10 Apr - 00:24:47 10° NW 00:33:51 67° SW 00:43:07 10° SSE night (unlit)
10 Apr - 02:35:38 10° WSW 02:39:30 13° SW 02:43:26 10° SSW visible
10 Apr - 09:02:18 10° S 09:09:54 24° SE 09:17:32 10° E daylight
10 Apr - 11:04:56 10° SW 11:15:06 81° NW 11:25:14 10° NE daylight
10 Apr - 13:14:35 10° W 13:19:48 15° NW 13:25:00 10° NNW daylight
10 Apr - 21:57:56 10° N 22:04:18 21° NE 22:10:38 10° E night (unlit)
10 Apr - 23:59:30 10° NW 00:08:38 75° SW 00:17:56 10° SE night (unlit)
11 Apr - 02:09:20 10° WSW 02:14:05 15° SW 02:18:56 10° S visible
11 Apr - 08:37:26 10° S 08:44:31 21° SE 08:51:37 10° E daylight
11 Apr - 10:39:40 10° SW 10:49:50 89° NW 11:00:01 10° NE daylight
11 Apr - 12:48:21 10° W 12:54:30 18° NW 13:00:38 10° NNW daylight
11 Apr - 21:33:21 10° NNE 21:39:03 18° NE 21:44:43 10° E visible
11 Apr - 23:34:15 10° NW 23:43:26 83° SW 23:52:44 10° SE night (unlit)
12 Apr - 01:43:14 10° WSW 01:48:43 17° SW 01:54:17 10° S night (unlit)
12 Apr - 08:12:38 10° S 08:19:07 19° SE 08:25:37 10° E daylight
12 Apr - 10:14:26 10° SW 10:24:35 83° SE 10:34:45 10° NE daylight
12 Apr - 12:22:19 10° W 12:29:12 20° NW 12:36:05 10° N daylight
12 Apr - 21:08:57 10° NNE 21:13:48 15° NE 21:18:38 10° E visible
12 Apr - 23:09:02 10° NW 23:18:14 88° NE 23:27:31 10° SE night (unlit)
13 Apr - 01:17:16 10° W 01:23:21 19° SW 01:29:32 10° S night (unlit)
13 Apr - 07:47:56 10° S 07:53:41 16° SE 07:59:29 10° ESE daylight
13 Apr - 09:49:12 10° SW 09:59:18 76° SE 10:09:27 10° NE daylight
13 Apr - 11:56:26 10° W 12:03:55 23° NW 12:11:25 10° N daylight
13 Apr - 20:44:48 10° NNE 20:48:33 13° NE 20:52:15 10° ENE visible
13 Apr - 22:43:52 10° NW 22:53:02 79° NE 23:02:16 10° SE night (unlit)
